Flag for Poland Weather past 2 weeks in Koszalin, Poland

Now
37 °F

Overcast.


Feels Like: 32 °F
Forecast: 31 / 36 °F
Wind: 6 mph from South

Location: Koszalin

Current Time: Jan 29, 2015 at 5:33:23 PM

Latest Report: Jan 29, 2015 at 4:00 PM


Visibility: 22 mi

Pressure: 29.09 "Hg

Humidity: 66%

Dew point: 27 °F

Location of KoszalinLocation

Historic Weather in Koszalin — Graph

°F

Koszalin temperature yesterday

Maximum temperature yesterday: 39 °F (at 10:00 PM)
Minimum temperature yesterday: 32 °F (at 8:00 AM)
Average temperature yesterday: 36 °F

Past Weeks' High & Low Weather Summary

 TemperatureHumidityPressure
High47 °F (Jan 16, 5:00 AM)97% (Jan 22, 10:00 AM)30.29 "Hg (Jan 22, 10:00 AM)
Low24 °F (Jan 24, 7:00 AM)62% (Jan 16, 1:00 PM)29.09 "Hg (Jan 29, 4:00 PM)
Average34 °F87%29.92 "Hg
* Reported Jan 14 4:00 PM — Jan 29 4:00 PM, Koszalin, Weather by CustomWeather, © 2014

Note: Actual official high and low records may vary slightly from our data, if they occured in-between our weather recording intervals... More about our weather records

Advertising

Koszalin weather history for previous 24 hours

 ConditionsComfort  
Time TempWeatherWind HumidityBarometerVisibility
4:00 PM
Jan 29
37 °FOvercast.6 mph66%29.09 "Hg22 mi
3:00 PM37 °FOvercast.6 mph70%29.12 "Hg18 mi
2:00 PM37 °FOvercast.7 mph66%29.12 "Hg22 mi
1:00 PM37 °FOvercast.6 mph72%29.15 "Hg16 mi
12:00 PM38 °FScattered clouds.6 mph69%29.15 "Hg13 mi
11:00 AM37 °FOvercast.6 mph73%29.15 "Hg14 mi
10:00 AM36 °FPartly sunny.7 mph77%29.15 "Hg13 mi
9:00 AM35 °FPassing clouds.6 mph80%29.15 "Hg12 mi
8:00 AM35 °FOvercast.7 mph81%29.15 "Hg12 mi
7:00 AM36 °FLight rain. Overcast.7 mph82%29.15 "Hg12 mi
6:00 AM36 °FOvercast.6 mph82%29.15 "Hg17 mi
5:00 AM36 °FOvercast.6 mph83%29.12 "Hg19 mi
3:00 AM35 °FLight rain. Low clouds.7 mph91%29.12 "Hg8 mi
2:00 AM34 °FLight rain. Low clouds.6 mph93%29.12 "Hg3 mi
1:00 AM36 °FLight rain. Low clouds.7 mph90%29.15 "Hg4 mi
12:00 AM37 °FLight rain. Overcast.7 mph84%29.18 "Hg6 mi
11:00 PM
Jan 28
38 °FOvercast.8 mph79%29.21 "Hg10 mi
10:00 PM39 °FOvercast.7 mph76%29.23 "Hg17 mi
9:00 PM38 °FOvercast.8 mph77%29.29 "Hg12 mi
8:00 PM38 °FOvercast.7 mph79%29.35 "Hg13 mi
7:00 PM38 °FOvercast.8 mph81%29.41 "Hg13 mi
6:00 PM38 °FOvercast.7 mph82%29.47 "Hg11 mi
5:00 PM37 °FOvercast.7 mph87%29.50 "Hg8 mi
Weather by CustomWeather, © 2014

See weather overviewHow to use our weather pages